Regional Weather Roundup
Issued by NWS

Home | Current Version | Previous Version | Text Only | Print | Product List | Glossary On
Versions: 1 2 3 4 5 6 7 8 9 10 11 12 13 14 15 16 17 18 19 20 21 22 23 24 25 26 27 28 29 30 31 32 33 34 35 36 37 38 39 40 41 42 43 44 45 46 47 48 49 50
000
ASUS44 KJAN 171810
RWRMS

MISSISSIPPI HOURLY WEATHER ROUNDUP
NATIONAL WEATHER SERVICE JACKSON MS
1200 PM CST FRI NOV 17 2017

NOTE: "FAIR: INDICATES FEW OR NO CLOUDS BELOW 12,000 FEET WITH NO
SIGNIFICANT WEATHER AND/OR OBSTRUCTIONS TO VISIBILITY.

MSZ001>002-007>008-010>013-018>021-025>028-034>036-171900-
NORTHWEST MISSISSIPPI

CITY           SKY/WX    TMP DP  RH WIND       PRES   REMARKS
BATESVILLE     FAIR      69  52  53 S6        30.04F
CLARKSDALE       N/A     72  61  68 S13       30.02F
CLEVELAND      FAIR      71  62  72 S15       30.01F
GREENWOOD      SUNNY     75  58  55 S15       30.02F
6HR MIN TEMP:  52; 6HR MAX TEMP:  75;

GREENVILLE     SUNNY     71  58  63 S18       30.00F
6HR MIN TEMP:  56; 6HR MAX TEMP:  73;

OLIVE BRANCH   PTSUNNY  N/A N/A N/A S12       29.99F
OXFORD         PTSUNNY   66  50  55 SE10      30.04F
TUNICA           N/A    N/A N/A N/A S13       30.02F
WINONA         FAIR      70  58  63 S10       30.04F
$$

MSZ003>006-009-014>017-022>024-029>033-037>039-171900-
NORTHEAST MISSISSIPPI

CITY           SKY/WX    TMP DP  RH WIND       PRES   REMARKS
ABERDEEN       FAIR      68  63  83 S8        30.09F
COLUMBUS AFB   SUNNY     68  54  61 S6        30.08F
6HR MIN TEMP:  36; 6HR MAX TEMP:  68;

CORINTH        FAIR      64  41  42 SE9       30.06F
GOLDN TRIANGLE SUNNY     68  50  52 S10       30.08F
STARKVILLE     FAIR      68  52  56 S9        30.08F
TUPELO         SUNNY     66  43  43 E9        30.07F
6HR MIN TEMP:  38; 6HR MAX TEMP:  66;

$$

MSZ040-058-171900-
CENTRAL MISSISSIPPI

CITY           SKY/WX    TMP DP  RH WIND       PRES   REMARKS
JACKSON INTL   MOSUNNY   76  59  55 S14       30.06F
6HR MIN TEMP:  57; 6HR MAX TEMP:  76;

JACKSON HAWKNS SUNNY     72  60  66 S9        30.07F
6HR MIN TEMP:  56; 6HR MAX TEMP:  73;

MADISON        FAIR      72  57  60 S7        30.06F
MERIDIAN KEY   SUNNY     72  58  61 S3        30.09F
6HR MIN TEMP:  49; 6HR MAX TEMP:  72;

MERIDIAN NAS   SUNNY     71  54  54 S6        30.10F
6HR MIN TEMP:  46; 6HR MAX TEMP:  72;

RAYMOND        FAIR      75  59  57 S15       30.05F
VICKSBURG VKS  CLEAR     77  59  53 S12G18    30.05F
$$

MSZ059>079-171900-
SOUTH MISSISSIPPI

CITY           SKY/WX    TMP DP  RH WIND       PRES   REMARKS
COLUMBIA       FAIR      73  59  60 S7        30.13F
HATTIESBURG    SUNNY     74  59  59 S9        30.10F
6HR MIN TEMP:  51; 6HR MAX TEMP:  74;

LAUREL         FAIR      71  56  60 S5        30.10F
MCCOMB         SUNNY     74  57  55 S12       30.09F
6HR MIN TEMP:  56; 6HR MAX TEMP:  74;

NATCHEZ        SUNNY     75  57  53 S12       30.06F
6HR MIN TEMP:  59; 6HR MAX TEMP:  76;

PINE BELT      SUNNY     73  59  61 SE6       30.10F
6HR MIN TEMP:  51; 6HR MAX TEMP:  73;

$$

MSZ080>082-171900-
COASTAL MISSISSIPPI

CITY           SKY/WX    TMP DP  RH WIND       PRES   REMARKS
BAY ST LOUIS   MOSUNNY   73  61  64 S8        30.10F
BILOXI         SUNNY     72  59  64 S6        30.10F
6HR MIN TEMP:  57; 6HR MAX TEMP:  72;

PASCAGOULA     SUNNY     74  57  55 SW7       30.11F
6HR MIN TEMP:  54; 6HR MAX TEMP:  74;

GULFPORT       SUNNY     71  59  65 SE7       30.10F
6HR MIN TEMP:  56; 6HR MAX TEMP:  72;

$$

LAZ007>009-015>016-023>026-171900-
NORTHEAST LOUISIANA

CITY           SKY/WX    TMP DP  RH WIND       PRES   REMARKS
BASTROP        FAIR      76  59  56 S14G20    30.01F
TALLULAH/VBURG LGT RAIN  74  61  63 S15G23    30.04F
6HR MIN TEMP:  58; 6HR MAX TEMP:  74; 6HR PCP: TRACE;

VIDALIA          N/A    N/A N/A N/A MISG      30.05F
$$



USA.gov is the U.S. government's official web portal to all federal, state and local government web resources and services.